DW3263 Weather Reports


time (UTC)temp
F
wind
direction
speed
knots
gust
knots
rain 1hr
in
rain 24hr
in
rain mn
in
humidity
%
barometer
mb
20260509211520 61 90 1.7 5.2 0.00 0.02 0.02 100 1007.7
20260509210520 60 158 1.7 4.3 0.00 0.02 0.02 100 1007.7
20260509205519 60 203 1.7 3.5 0.00 0.02 0.02 100 1007.8
20260509204520 58 203 0.9 2.6 0.00 0.02 0.02 100 1007.7
20260509203520 57 113 1.7 4.3 0.00 0.02 0.02 100 1007.8
20260509202519 56 90 3.5 6.1 0.00 0.02 0.02 100 1007.7
20260509201519 56 90 2.6 4.3 0.01 0.02 0.02 100 1008.0
20260509200519 56 90 0.9 1.7 0.01 0.02 0.02 100 1008.1
20260509195520 56 0.0 0.9 0.01 0.02 0.02 100 1008.0
20260509194519 56 90 2.6 5.2 0.01 0.02 0.02 100 1007.9
20260509193519 56 90 1.7 4.3 0.01 0.02 0.02 100 1007.9
20260509192520 56 90 1.7 5.2 0.01 0.02 0.02 100 1008.2
20260509191519 56 90 2.6 5.2 0.00 0.01 0.01 100 1008.3
20260509190520 56 90 0.9 2.6 0.00 0.01 0.01 100 1008.6
20260509185520 56 90 0.9 2.6 0.00 0.01 0.01 100 1008.6
20260509184520 56 225 2.6 6.1 0.00 0.01 0.01 100 1008.8
20260509183520 56 225 0.9 2.6 0.00 0.01 0.01 100 1008.9
20260509182520 56 225 0.9 3.5 0.00 0.01 0.01 100 1008.7
20260509181520 55 0.0 1.7 0.00 0.01 0.01 100 1008.6
20260509180520 55 225 0.9 2.6 0.00 0.01 0.01 100 1008.6
20260509175520 55 225 0.9 2.6 0.00 0.01 0.01 100 1008.8
20260509174731 54 0.0 1.7 0.00 0.01 0.01 100 1009.0
20260509173520 54 0.0 1.7 0.00 0.01 0.01 100 1009.2
20260509172519 54 225 1.7 3.5 0.00 0.01 0.01 100 1009.3
20260509171520 54 225 1.7 3.5 0.00 0.01 0.01 100 1009.4
20260509170520 54 225 0.9 5.2 0.01 0.01 0.01 100 1009.5
20260509165519 54 180 0.9 5.2 0.01 0.01 0.01 100 1009.4
20260509164945 54 180 1.7 3.5 0.01 0.01 0.01 100 1009.4
20260509163733 54 315 2.6 7.0 0.01 0.01 0.01 100 1009.2
20260509162520 54 0.0 1.7 0.01 0.01 0.01 100 1008.9
20260509161520 54 270 0.9 1.7 0.01 0.01 0.01 100 1009.1
20260509160520 53 0.0 0.0 0.00 0.00 0.00 100 1009.1
20260509155520 53 0.0 0.9 0.00 0.00 0.00 100 1009.2
20260509154520 53 0.0 0.0 0.00 0.00 0.00 100 1009.5
20260509153520 53 248 0.9 2.6 0.00 0.00 0.00 100 1009.7
20260509152530 53 248 0.9 2.6 0.00 0.00 0.00 100 1009.8
20260509151520 53 248 0.9 3.5 0.00 0.00 0.00 100 1010.1
20260509150520 54 248 1.7 4.3 0.00 0.00 0.00 100 1010.2
20260509145519 54 248 0.9 1.7 0.00 0.00 0.00 100 1009.8
20260509144520 54 248 0.9 2.6 0.00 0.00 0.00 100 1009.7
20260509143520 54 248 0.9 2.6 0.00 0.00 0.00 100 1009.6
20260509142943 54 248 0.9 2.6 0.00 0.00 0.00 100 1009.5
20260509141518 54 248 0.9 1.7 0.00 0.00 0.00 100 1009.5
20260509140520 53 0.0 0.9 0.00 0.00 0.00 100 1009.3
20260509135520 53 0.0 1.7 0.00 0.00 0.00 100 1009.2
20260509134520 53 0.0 0.0 0.00 0.00 0.00 100 1009.2
20260509133730 53 0.0 0.9 0.00 0.00 0.00 100 1009.5
20260509132520 52 248 0.9 2.6 0.00 0.00 0.00 100 1009.5
20260509131521 52 248 0.9 2.6 0.00 0.00 0.00 100 1009.4
20260509130519 52 0.0 1.7 0.00 0.00 0.00 100 1009.2
20260509125520 52 248 0.9 2.6 0.00 0.00 0.00 100 1009.2
20260509124520 52 0.0 0.9 0.00 0.00 0.00 100 1009.1
20260509123520 52 0.0 1.7 0.00 0.00 0.00 100 1009.2
20260509122521 51 0.0 0.0 0.00 0.00 0.00 100 1009.3
20260509121520 51 0.0 2.6 0.00 0.00 0.00 100 1009.6
20260509120520 51 0.0 0.9 0.00 0.00 0.00 100 1009.7
20260509115520 51 248 0.9 2.6 0.00 0.00 0.00 100 1009.6
20260509114520 50 0.0 0.9 0.00 0.00 0.00 100 1009.4
20260509113520 50 0.0 0.0 0.00 0.00 0.00 100 1009.2
20260509112520 50 0.0 1.7 0.00 0.00 0.00 100 1009.4
20260509111520 50 248 2.6 5.2 0.00 0.00 0.00 100 1009.6
20260509110734 49 113 1.7 3.5 0.00 0.00 0.00 100 1009.1
20260509105730 49 113 0.9 2.6 0.00 0.00 0.00 100 1008.9
20260509104519 49 113 0.9 3.5 0.00 0.00 0.00 100 1008.9
20260509103520 48 113 1.7 6.1 0.00 0.00 0.00 100 1008.4
20260509102520 48 0.0 0.9 0.00 0.00 0.00 100 1008.6
20260509101520 48 0.0 0.0 0.00 0.00 0.00 100 1008.8
20260509100729 48 248 0.9 2.6 0.00 0.00 0.00 100 1008.8
20260509095518 48 0.0 1.7 0.00 0.00 0.00 100 1008.9
20260509094520 48 0.0 0.0 0.00 0.00 0.00 100 1008.9
20260509093519 48 0.0 0.0 0.00 0.00 0.00 100 1008.9
20260509092520 48 0.0 0.0 0.00 0.00 0.00 100 1008.9
20260509091520 48 0.0 0.0 0.00 0.00 0.00 100 1008.9
20260509090520 48 0.0 0.9 0.00 0.00 0.00 100 1009.0
20260509085520 48 0.0 0.0 0.00 0.00 0.00 100 1008.9
20260509084945 48 0.0 0.0 0.00 0.00 0.00 100 1009.1
20260509083520 48 0.0 0.0 0.00 0.00 0.00 100 1009.0
20260509082519 49 0.0 0.0 0.00 0.00 0.00 100 1009.2
20260509081520 49 0.0 0.0 0.00 0.00 0.00 100 1009.2
20260509080520 49 0.0 0.0 0.00 0.00 0.00 100 1009.2
20260509075520 49 0.0 0.0 0.00 0.00 0.00 100 1009.2
20260509074520 49 0.0 0.0 0.00 0.00 0.00 100 1009.3
20260509073520 49 0.0 0.0 0.00 0.00 0.00 100 1009.3
20260509072735 49 0.0 0.0 0.00 0.00 0.00 100 1009.5
20260509071730 49 0.0 0.0 0.00 0.00 0.00 100 1009.7
20260509070519 50 0.0 0.0 0.00 0.00 0.00 100 1009.6
20260509065732 50 0.0 0.0 0.00 0.00 0.00 100 1009.9
20260509064520 50 0.0 0.0 0.00 0.00 0.00 100 1010.0
20260509063519 50 0.0 0.0 0.00 0.00 0.00 100 1010.0
20260509062521 51 0.0 0.0 0.00 0.00 0.00 100 1010.1
20260509061520 51 0.0 0.9 0.00 0.00 0.00 100 1010.1
20260509060945 51 248 0.9 3.5 0.00 0.00 0.00 100 1010.1
20260509055519 51 0.0 1.7 0.00 0.00 0.00 100 1010.1
20260509054520 52 248 0.9 2.6 0.00 0.00 0.00 100 1010.3
20260509053520 52 0.0 0.9 0.00 0.00 0.00 100 1010.2
20260509052518 52 0.0 0.0 0.00 0.00 0.00 100 1010.1
20260509051518 52 0.0 0.0 0.00 0.00 0.00 2 1010.2
20260509050520 52 0.0 0.0 0.00 0.00 0.00 100 1010.3
20260509045519 52 0.0 1.7 0.00 0.00 0.00 100 1010.3
20260509044518 52 0.0 0.9 0.00 0.00 0.00 100 1010.2
20260509043520 52 0.0 0.0 0.00 0.00 0.00 100 1010.2
20260509042519 52 0.0 0.0 0.00 0.00 0.00 100 1010.3
20260509041945 52 0.0 0.0 0.00 0.00 0.00 100 1010.2
20260509040519 52 0.0 1.7 0.00 0.00 0.00 100 1010.2
20260509035729 52 0.0 0.9 0.00 0.00 0.00 100 1010.3
20260509034730 52 0.0 0.0 0.00 0.00 0.00 100 1010.4
20260509033520 52 0.0 1.7 0.00 0.00 0.00 3 1010.5
20260509032732 53 0.0 0.0 0.00 0.00 0.00 16 1010.5
20260509031520 53 0.0 0.0 0.00 0.00 0.00 15 1010.6
20260509030520 53 0.0 0.0 0.00 0.00 0.00 15 1010.8
20260509025530 53 0.0 0.0 0.00 0.00 0.00 19 1010.9
20260509024520 53 0.0 0.0 0.00 0.00 0.00 18 1010.8
20260509023520 53 0.0 1.7 0.00 0.00 0.00 32 1010.5
20260509022520 54 0.0 0.0 0.00 0.00 0.00 33 1010.2
20260509021520 54 0.0 0.0 0.00 0.00 0.00 37 1010.2
20260509020520 54 0.0 0.0 0.00 0.00 0.00 36 1010.3
20260509015520 54 0.0 0.9 0.00 0.00 0.00 42 1010.2
20260509014519 54 0.0 0.9 0.00 0.00 0.00 48 1010.2
20260509013520 55 0.0 0.0 0.00 0.00 0.00 45 1010.2
20260509012520 55 0.0 0.9 0.00 0.00 0.00 48 1010.1
20260509011520 55 0.0 0.0 0.00 0.00 0.00 57 1010.1
20260509010520 55 0.0 0.0 0.00 0.00 0.00 58 1009.9
20260509005520 56 0.0 1.7 0.00 0.00 0.00 60 1009.9
20260509004732 56 0.0 0.0 0.00 0.00 0.00 59 1009.8
20260509003518 56 0.0 0.0 0.00 0.00 0.00 61 1009.9
20260509002520 56 0.0 0.0 0.00 0.00 0.00 61 1009.9
20260509001520 57 0.0 0.9 0.00 0.00 0.00 62 1009.8
20260509000520 57 0.0 0.0 0.00 0.00 0.00 62 1009.7
20260508235520 58 0.0 1.7 0.00 0.00 0.00 62 1009.8
20260508234520 59 0.0 0.0 0.00 0.00 0.00 60 1009.5
20260508233520 60 0.0 0.9 0.00 0.00 0.00 58 1009.4
20260508232520 61 248 0.9 3.5 0.00 0.00 0.00 56 1009.3
20260508231520 61 248 0.9 3.5 0.00 0.00 0.00 55 1009.1
20260508230520 62 248 0.9 1.7 0.00 0.00 0.00 53 1009.0
20260508225732 62 248 0.9 3.5 0.00 0.00 0.00 52 1009.1
20260508224520 62 248 0.9 3.5 0.00 0.00 0.00 50 1009.1
20260508223520 62 248 0.9 2.6 0.00 0.00 0.00 50 1009.1
20260508222730 62 0.0 0.9 0.00 0.00 0.00 50 1009.0
20260508221520 62 248 3.5 5.2 0.00 0.00 0.00 48 1008.9
20260508220520 63 315 1.7 5.2 0.00 0.00 0.00 48 1008.8
20260508215520 62 293 3.5 7.8 0.00 0.00 0.00 47 1008.9
20260508214520 62 270 2.6 7.0 0.00 0.00 0.00 47 1009.0
20260508213520 62 293 4.3 7.0 0.00 0.00 0.00 47 1009.2
20260508212520 63 293 2.6 8.7 0.00 0.00 0.00 45 1009.2